When you browse on this site, cookies collect data to enhance your experience and personalize the content and advertising you see.
Visit our Privacy Policy to learn more. By continuing to use the site, you agree to this use of cookies and data.
  • In Sweden
  • List of Countries
  • For 7 days
  • Water Temperature
  • Weather Map
  • Weather Widgets
  • user-avatar
    Login

    Hourly Weather Aleksandriya

    Today, 21 September, Saturday

    Time Temperature Precipitation Wind Pressure Humidity
    00:00 +5°C° 0 mm 2 mps 742 mmHg 94%
    01:00 +5°C° 0 mm 1 mps 742 mmHg 94%
    02:00 +5°C° 0 mm 1 mps 742 mmHg 95%
    03:00 +3°C° 0 mm 0 mps 743 mmHg 96%
    04:00 +4°C° 0 mm 1 mps 742 mmHg 96%
    05:00 +4°C° 0 mm 1 mps 742 mmHg 96%
    06:00 +4°C° 0 mm 1 mps 742 mmHg 96%
    07:00 +5°C° 0 mm 1 mps 742 mmHg 90%
    08:00 +7°C° 0 mm 1 mps 742 mmHg 85%
    09:00 +8°C° 0 mm 1 mps 742 mmHg 79%
    10:00 +9°C° 0 mm 1 mps 742 mmHg 73%
    11:00 +10°C° 0 mm 1 mps 742 mmHg 67%
    12:00 +10°C° 0 mm 2 mps 742 mmHg 61%
    13:00 +10°C° 0 mm 2 mps 741 mmHg 59%
    14:00 +10°C° 0 mm 2 mps 741 mmHg 58%
    15:00 +10°C° 0 mm 2 mps 741 mmHg 57%
    16:00 +9°C° 0 mm 2 mps 741 mmHg 62%
    17:00 +8°C° 0 mm 2 mps 740 mmHg 67%
    18:00 +8°C° 0 mm 1 mps 740 mmHg 73%
    19:00 +7°C° 0.1 mm 1 mps 740 mmHg 78%
    20:00 +6°C° 0.1 mm 2 mps 740 mmHg 82%
    21:00 +5°C° 0.1 mm 2 mps 740 mmHg 87%
    22:00 +5°C° 0.1 mm 1 mps 740 mmHg 89%
    23:00 +5°C° 0.1 mm 1 mps 740 mmHg 91%

    Tomorrow, 22 September, Sunday

    Time Temperature Precipitation Wind Pressure Humidity
    00:00 +4°C° 0.1 mm 1 mps 739 mmHg 93%
    01:00 +4°C° 0 mm 1 mps 739 mmHg 94%
    02:00 +3°C° 0 mm 1 mps 739 mmHg 95%
    03:00 +2°C° 0 mm 2 mps 739 mmHg 95%
    04:00 +2°C° 0 mm 2 mps 738 mmHg 95%
    05:00 +2°C° 0 mm 2 mps 738 mmHg 94%
    06:00 +1°C° 0 mm 2 mps 737 mmHg 93%
    07:00 +2°C° 0 mm 3 mps 737 mmHg 87%
    08:00 +3°C° 0 mm 4 mps 736 mmHg 81%
    09:00 +5°C° 0 mm 4 mps 735 mmHg 76%
    10:00 +5°C° 0.1 mm 5 mps 734 mmHg 74%
    11:00 +5°C° 0.1 mm 6 mps 733 mmHg 73%
    12:00 +5°C° 0.1 mm 7 mps 732 mmHg 72%
    13:00 +4°C° 0.3 mm 7 mps 731 mmHg 79%
    14:00 +3°C° 0.3 mm 7 mps 730 mmHg 87%
    15:00 +2°C° 0.3 mm 7 mps 729 mmHg 94%
    16:00 +2°C° 0.9 mm 6 mps 729 mmHg 93%
    17:00 +3°C° 0.9 mm 6 mps 728 mmHg 91%
    18:00 +3°C° 0.9 mm 5 mps 727 mmHg 90%
    19:00 +3°C° 0.1 mm 6 mps 727 mmHg 90%
    20:00 +2°C° 0.1 mm 6 mps 727 mmHg 90%
    21:00 0°C° 0.1 mm 7 mps 727 mmHg 90%
    22:00 0°C° 0.4 mm 7 mps 727 mmHg 92%
    23:00 0°C° 0.4 mm 7 mps 727 mmHg 94%

    Day after tomorrow, 23 September, Monday

    Time Temperature Precipitation Wind Pressure Humidity
    00:00 0°C° 0.4 mm 8 mps 727 mmHg 96%
    01:00 0°C° 0.5 mm 8 mps 728 mmHg 96%
    02:00 0°C° 0.5 mm 9 mps 729 mmHg 95%
    03:00 0°C° 0.5 mm 10 mps 730 mmHg 95%
    04:00 0°C° 0.1 mm 9 mps 732 mmHg 93%
    05:00 0°C° 0.1 mm 8 mps 733 mmHg 91%
    06:00 0°C° 0.1 mm 8 mps 734 mmHg 89%
    07:00 0°C° 0 mm 8 mps 735 mmHg 87%
    08:00 -1°C° 0 mm 8 mps 736 mmHg 86%
    09:00 -1°C° 0 mm 7 mps 737 mmHg 84%
    10:00 0°C° 0 mm 8 mps 738 mmHg 81%
    11:00 0°C° 0 mm 8 mps 738 mmHg 79%
    12:00 +1°C° 0 mm 8 mps 739 mmHg 76%
    13:00 +1°C° 0 mm 8 mps 739 mmHg 76%
    14:00 +1°C° 0 mm 8 mps 740 mmHg 76%
    15:00 +2°C° 0 mm 8 mps 740 mmHg 76%
    16:00 +2°C° 0.1 mm 7 mps 740 mmHg 80%
    17:00 +2°C° 0.1 mm 7 mps 740 mmHg 85%
    18:00 0°C° 0.1 mm 7 mps 741 mmHg 89%
    19:00 0°C° 0.2 mm 7 mps 741 mmHg 87%
    20:00 +1°C° 0.2 mm 6 mps 741 mmHg 86%
    21:00 +1°C° 0.2 mm 6 mps 742 mmHg 85%
    22:00 +1°C° 0 mm 6 mps 742 mmHg 86%
    23:00 0°C° 0 mm 5 mps 742 mmHg 87%

    24 September, Tuesday

    Time Temperature Precipitation Wind Pressure Humidity
    00:00 0°C° 0 mm 5 mps 742 mmHg 87%
    01:00 0°C° 0 mm 5 mps 743 mmHg 88%
    02:00 0°C° 0 mm 5 mps 743 mmHg 88%
    03:00 0°C° 0 mm 4 mps 744 mmHg 89%
    04:00 -1°C° 0 mm 4 mps 744 mmHg 89%
    05:00 -1°C° 0 mm 4 mps 744 mmHg 89%
    06:00 -1°C° 0 mm 4 mps 744 mmHg 88%
    07:00 0°C° 0 mm 4 mps 745 mmHg 86%
    08:00 0°C° 0 mm 4 mps 745 mmHg 83%
    09:00 +1°C° 0 mm 4 mps 745 mmHg 81%
    10:00 +3°C° 0 mm 4 mps 745 mmHg 77%
    11:00 +3°C° 0 mm 4 mps 745 mmHg 73%
    12:00 +4°C° 0 mm 4 mps 745 mmHg 69%
    13:00 +5°C° 0.1 mm 4 mps 745 mmHg 67%
    14:00 +5°C° 0.1 mm 4 mps 745 mmHg 64%
    15:00 +6°C° 0.1 mm 4 mps 745 mmHg 61%
    16:00 +5°C° 0.1 mm 4 mps 745 mmHg 67%
    17:00 +4°C° 0.1 mm 3 mps 745 mmHg 72%
    18:00 +4°C° 0.1 mm 2 mps 745 mmHg 77%
    19:00 +3°C° 0 mm 2 mps 745 mmHg 80%
    20:00 +3°C° 0 mm 2 mps 746 mmHg 83%
    21:00 +2°C° 0 mm 2 mps 746 mmHg 86%
    22:00 +2°C° 0 mm 2 mps 746 mmHg 87%
    23:00 +1°C° 0 mm 2 mps 746 mmHg 89%

    25 September, Wednesday

    Time Temperature Precipitation Wind Pressure Humidity
    00:00 +1°C° 0 mm 2 mps 746 mmHg 91%
    01:00 -1°C° 0 mm 2 mps 746 mmHg 91%
    02:00 -1°C° 0 mm 2 mps 746 mmHg 92%
    03:00 -1°C° 0 mm 2 mps 746 mmHg 93%
    04:00 -2°C° 0 mm 2 mps 746 mmHg 93%
    05:00 -2°C° 0 mm 2 mps 746 mmHg 93%
    06:00 -2°C° 0 mm 2 mps 746 mmHg 93%
    07:00 +1°C° 0 mm 2 mps 747 mmHg 86%
    08:00 +3°C° 0 mm 2 mps 747 mmHg 78%
    09:00 +3°C° 0 mm 3 mps 747 mmHg 71%
    10:00 +4°C° 0 mm 3 mps 747 mmHg 67%
    11:00 +5°C° 0 mm 4 mps 747 mmHg 63%
    12:00 +6°C° 0 mm 4 mps 748 mmHg 59%
    13:00 +6°C° 0 mm 4 mps 748 mmHg 58%
    14:00 +6°C° 0 mm 4 mps 748 mmHg 58%
    15:00 +6°C° 0 mm 4 mps 747 mmHg 58%
    16:00 +5°C° 0 mm 3 mps 748 mmHg 62%
    17:00 +5°C° 0 mm 2 mps 748 mmHg 65%
    18:00 +5°C° 0 mm 1 mps 748 mmHg 69%
    19:00 +5°C° 0 mm 1 mps 748 mmHg 69%
    20:00 +5°C° 0 mm 1 mps 748 mmHg 69%
    21:00 +4°C° 0 mm 0 mps 748 mmHg 68%
    22:00 +4°C° 0 mm 0 mps 748 mmHg 69%
    23:00 +5°C° 0 mm 1 mps 748 mmHg 70%

    26 September, Thursday

    Time Temperature Precipitation Wind Pressure Humidity
    00:00 +5°C° 0 mm 1 mps 748 mmHg 71%
    01:00 +4°C° 0 mm 1 mps 749 mmHg 74%
    02:00 +3°C° 0 mm 1 mps 749 mmHg 78%
    03:00 +2°C° 0 mm 1 mps 749 mmHg 82%
    04:00 +2°C° 0 mm 1 mps 749 mmHg 84%
    05:00 +2°C° 0 mm 1 mps 749 mmHg 85%
    06:00 +1°C° 0 mm 0 mps 749 mmHg 87%
    07:00 +2°C° 0 mm 0 mps 750 mmHg 79%
    08:00 +4°C° 0 mm 0 mps 750 mmHg 72%
    09:00 +7°C° 0 mm 1 mps 750 mmHg 65%
    10:00 +7°C° 0 mm 1 mps 750 mmHg 60%
    11:00 +8°C° 0 mm 1 mps 750 mmHg 56%
    12:00 +9°C° 0 mm 1 mps 750 mmHg 51%
    13:00 +9°C° 0 mm 1 mps 750 mmHg 50%
    14:00 +9°C° 0 mm 1 mps 750 mmHg 49%
    15:00 +9°C° 0 mm 1 mps 750 mmHg 48%
    16:00 +8°C° 0 mm 1 mps 750 mmHg 52%
    17:00 +6°C° 0 mm 0 mps 749 mmHg 57%
    18:00 +5°C° 0 mm 0 mps 749 mmHg 62%
    19:00 +4°C° 0 mm 0 mps 750 mmHg 64%
    20:00 +5°C° 0 mm 1 mps 750 mmHg 65%
    21:00 +4°C° 0 mm 1 mps 750 mmHg 67%
    22:00 +4°C° 0 mm 1 mps 750 mmHg 69%
    23:00 +4°C° 0 mm 1 mps 750 mmHg 71%
    Show more